User: anonymous   Login
Location: Unspecified
(0.0000°N, 0.0000°E)
Time: 14:49:14
(UTC+00:00)
Language:

FAISAT - Orbit

View from above orbital plane
View from above orbital plane
View from above satellite
View from above satellite

Ground track
Ground track

The orbit data is extracted from the following two-line orbital elements,

1 23465U 95002C   17206.25253943 +.00000034 +00000-0 +20987-4 0  9992
2 23465 082.9264 262.6581 0037537 178.8936 245.2681 13.71876224126446
Epoch (UTC): 25 July 2017 06:03:39
Eccentricity: 0.0037537
inclination: 82.9264°
perigee height: 965 km
apogee height: 1020 km
right ascension of ascending node: 262.6581°
argument of perigee: 178.8936°
revolutions per day: 13.71876224
mean anomaly at epoch: 245.2681°
orbit number at epoch: 12644

The dashed part of the orbit path shows where the satellite is in the earth's shadow,  

DLR